OK,12,96,749,12,2014-10-01T01:40:00,0,28072076,180764
OK,12,96,749,12,2014-10-01T01:45:00,0,28072519,180764
OK,12,96,749,12,2014-10-01T01:50:00,0,28072968,180764
OK,12,96,749,12,2014-10-01T01:55:00,0,28073415,180764
OK,51,22,749,51,2014-10-01T02:05:00,0,28074181,180764
OK,51,22,749,51,2014-10-01T02:10:00,0,28074630,180764
OK,39,29,749,39,2014-10-01T02:15:00,4,28075070,180764
OK,29,39,749,29,2014-10-01T02:20:00,2,28075519,180764
OK,34,33,749,34,2014-10-01T02:25:00,0,28075968,180764
OK,34,33,749,34,2014-10-01T02:30:00,0,28076351,180764
OK,34,33,749,34,2014-10-01T02:35:00,0,28076800,180764
OK,34,33,749,34,2014-10-01T02:40:00,0,28077249,180764
OK,34,33,749,34,2014-10-01T02:45:00,0,28077698,180764
OK,34,33,749,34,2014-10-01T02:50:00,0,28078101,180764
OK,53,21,749,53,2014-10-01T02:55:00,1,28078550,180764
OK,53,21,749,53,2014-10-01T03:00:00,0,28078995,180764
OK,53,21,749,53,2014-10-01T03:05:00,0,28079443,180764
OK,53,21,749,53,2014-10-01T03:10:00,0,28079886,180764
OK,53,21,749,53,2014-10-01T03:20:00,0,28080669,180764
OK,22,52,749,22,2014-10-01T03:25:00,1,28081118,180764
OK,27,42,749,27,2014-10-01T03:30:00,1,28081566,180764
OK,27,42,749,27,2014-10-01T03:35:00,0,28082014,180764
OK,48,24,749,48,2014-10-01T03:40:00,3,28082463,180764
OK,18,64,749,18,2014-10-01T03:45:00,6,28082896,180764
OK,18,64,749,18,2014-10-01T03:50:00,4,28083328,180764
OK,17,67,749,17,2014-10-01T03:55:00,2,28083777,180764
OK,13,88,749,13,2014-10-01T04:00:00,1,28084226,180764
OK,39,29,749,39,2014-10-01T04:05:00,1,28084667,180764
OK,17,67,749,17,2014-10-01T04:10:00,2,28085092,180764
OK,19,60,749,19,2014-10-01T04:15:00,4,28085541,180764
OK,19,60,749,19,2014-10-01T04:20:00,4,28085986,180764
OK,28,41,749,28,2014-10-01T04:25:00,2,28086435,180764
OK,16,72,749,16,2014-10-01T04:30:00,3,28086877,180764
OK,17,67,749,17,2014-10-01T04:35:00,5,28087326,180764
OK,20,57,749,20,2014-10-01T04:40:00,10,28087771,180764
OK,18,64,749,18,2014-10-01T04:45:00,18,28088220,180764
OK,20,57,749,20,2014-10-01T04:50:00,17,28088644,180764
OK,23,50,749,23,2014-10-01T04:55:00,14,28089093,180764
OK,25,46,749,25,2014-10-01T05:00:00,14,28089523,180764
OK,22,52,749,22,2014-10-01T05:05:00,13,28089972,180764
OK,20,57,749,20,2014-10-01T05:10:00,5,28090421,180764
OK,23,50,749,23,2014-10-01T05:15:00,6,28090765,180764
OK,26,44,749,26,2014-10-01T05:20:00,11,28091214,180764
OK,35,33,749,35,2014-10-01T05:25:00,18,28091663,180764
OK,38,30,749,38,2014-10-01T05:30:00,21,28092080,180764
OK,38,30,749,38,2014-10-01T05:35:00,23,28092529,180764
OK,66,17,749,66,2014-10-01T05:40:00,30,28092973,180764
OK,107,10,749,107,2014-10-01T05:45:00,34,28093414,180764
OK,119,9,749,119,2014-10-01T05:50:00,30,28093845,180764
OK,129,8,749,129,2014-10-01T05:55:00,30,28094293,180764
OK,123,9,749,123,2014-10-01T06:00:00,31,28094705,180764
OK,125,9,749,125,2014-10-01T06:05:00,32,28095150,180764
OK,123,9,749,123,2014-10-01T06:10:00,28,28095597,180764
OK,123,9,749,123,2014-10-01T06:15:00,35,28096046,180764
OK,124,9,749,124,2014-10-01T06:20:00,40,28096459,180764
OK,159,7,749,159,2014-10-01T06:25:00,37,28096908,180764
OK,142,8,749,142,2014-10-01T06:30:00,29,28097342,180764
OK,106,10,749,106,2014-10-01T06:35:00,35,28097791,180764
OK,104,11,749,104,2014-10-01T06:40:00,38,28098240,180764
OK,116,9,749,116,2014-10-01T06:45:00,35,28098677,180764
OK,106,10,749,106,2014-10-01T06:50:00,31,28099121,180764
OK,27,42,749,27,2014-10-01T07:00:00,12,28099912,180764
OK,33,35,749,33,2014-10-01T07:10:00,7,28100668,180764
OK,24,48,749,24,2014-10-01T07:20:00,8,28101488,180764
OK,31,37,749,31,2014-10-01T07:25:00,13,28101937,180764
OK,28,41,749,28,2014-10-01T07:30:00,18,28102373,180764
OK,28,41,749,28,2014-10-01T07:35:00,12,28102822,180764
OK,22,52,749,22,2014-10-01T07:40:00,9,28103249,180764
OK,21,55,749,21,2014-10-01T07:45:00,12,28103696,180764
OK,20,57,749,20,2014-10-01T07:50:00,9,28104141,180764
OK,24,48,749,24,2014-10-01T07:55:00,9,28104586,180764
OK,29,39,749,29,2014-10-01T08:00:00,9,28105027,180764
OK,40,28,749,40,2014-10-01T08:05:00,9,28105472,180764
OK,21,55,749,21,2014-10-01T08:10:00,7,28105912,180764
OK,17,67,749,17,2014-10-01T08:15:00,5,28106361,180764
OK,18,64,749,18,2014-10-01T08:20:00,12,28106797,180764
OK,20,57,749,20,2014-10-01T08:30:00,13,28107636,180764
OK,20,57,749,20,2014-10-01T08:35:00,16,28108085,180764
OK,21,55,749,21,2014-10-01T08:40:00,10,28108524,180764
OK,22,52,749,22,2014-10-01T08:45:00,8,28108973,180764
OK,21,55,749,21,2014-10-01T08:50:00,10,28109401,180764
OK,19,60,749,19,2014-10-01T09:00:00,8,28110193,180764
OK,21,55,749,21,2014-10-01T09:05:00,15,28110642,180764
OK,19,60,749,19,2014-10-01T09:10:00,13,28111065,180764
OK,22,52,749,22,2014-10-01T09:15:00,12,28111514,180764
OK,23,50,749,23,2014-10-01T09:20:00,5,28111943,180764
OK,20,57,749,20,2014-10-01T09:30:00,0,28112733,180764
OK,28,41,749,28,2014-10-01T09:35:00,6,28113182,180764
OK,23,50,749,23,2014-10-01T09:40:00,2,28113606,180764
OK,22,52,749,22,2014-10-01T09:45:00,6,28114055,180764
OK,20,57,749,20,2014-10-01T09:50:00,8,28114487,180764
OK,21,55,749,21,2014-10-01T10:00:00,10,28115290,180764
OK,25,46,749,25,2014-10-01T10:05:00,7,28115739,180764
OK,36,32,749,36,2014-10-01T10:10:00,4,28116151,180764
OK,23,50,749,23,2014-10-01T10:15:00,8,28116600,180764
OK,21,55,749,21,2014-10-01T10:20:00,12,28117008,180764
OK,19,60,749,19,2014-10-01T10:25:00,8,28117457,180764
OK,19,60,749,19,2014-10-01T10:30:00,5,28117882,180764
OK,20,57,749,20,2014-10-01T10:35:00,8,28118331,180764
OK,19,60,749,19,2014-10-01T10:40:00,10,28118776,180764
OK,23,50,749,23,2014-10-01T10:45:00,12,28119223,180764
OK,24,48,749,24,2014-10-01T10:50:00,9,28119667,180764
OK,20,57,749,20,2014-10-01T10:55:00,10,28120115,180764
OK,19,60,749,19,2014-10-01T11:00:00,12,28120563,180764
OK,20,57,749,20,2014-10-01T11:10:00,8,28121395,180764
OK,22,52,749,22,2014-10-01T11:15:00,12,28121844,180764
OK,20,57,749,20,2014-10-01T11:20:00,7,28122282,180764
OK,20,57,749,20,2014-10-01T11:25:00,7,28122731,180764
OK,43,26,749,43,2014-10-01T11:30:00,3,28123172,180764
OK,19,60,749,19,2014-10-01T11:35:00,3,28123621,180764
OK,22,52,749,22,2014-10-01T11:40:00,4,28124053,180764
OK,23,50,749,23,2014-10-01T11:45:00,4,28124502,180764
OK,21,55,749,21,2014-10-01T11:50:00,5,28124904,180764
OK,29,39,749,29,2014-10-01T11:55:00,6,28125353,180764
OK,29,39,749,29,2014-10-01T12:00:00,8,28125782,180764
OK,21,55,749,21,2014-10-01T12:10:00,9,28126583,180764
OK,20,57,749,20,2014-10-01T12:15:00,3,28127032,180764
OK,22,52,749,22,2014-10-01T12:20:00,8,28127481,180764
OK,22,52,749,22,2014-10-01T12:25:00,9,28127930,180764
OK,21,55,749,21,2014-10-01T12:30:00,4,28128358,180764
OK,46,25,749,46,2014-10-01T12:35:00,8,28128807,180764
OK,27,42,749,27,2014-10-01T12:40:00,8,28129242,180764
OK,26,44,749,26,2014-10-01T12:45:00,3,28129691,180764
OK,18,64,749,18,2014-10-01T12:50:00,3,28130125,180764
OK,47,24,749,47,2014-10-01T12:55:00,6,28130574,180764
OK,23,50,749,23,2014-10-01T13:00:00,9,28131002,180764
OK,21,55,749,21,2014-10-01T13:05:00,10,28131451,180764
OK,20,57,749,20,2014-10-01T13:10:00,7,28131888,180764
OK,34,33,749,34,2014-10-01T13:15:00,5,28132337,180764
OK,24,48,749,24,2014-10-01T13:20:00,10,28132775,180764
OK,24,48,749,24,2014-10-01T13:25:00,8,28133222,180764
OK,31,37,749,31,2014-10-01T13:30:00,8,28133660,180764
OK,21,55,749,21,2014-10-01T13:40:00,4,28134548,180764
OK,24,48,749,24,2014-10-01T13:50:00,5,28135416,180764
OK,41,28,749,41,2014-10-01T14:00:00,7,28136302,180764
OK,55,21,749,55,2014-10-01T14:05:00,2,28136751,180764
OK,69,16,749,69,2014-10-01T14:10:00,0,28137191,180764
OK,24,48,749,24,2014-10-01T14:15:00,6,28137640,180764
OK,22,52,749,22,2014-10-01T14:20:00,5,28138074,180764
OK,21,55,749,21,2014-10-01T14:30:00,6,28138951,180764
OK,25,46,749,25,2014-10-01T14:40:00,6,28139811,180764
OK,23,50,749,23,2014-10-01T14:45:00,9,28140260,180764
OK,35,33,749,35,2014-10-01T14:50:00,9,28140702,180764
OK,22,52,749,22,2014-10-01T15:00:00,8,28141577,180764
OK,23,50,749,23,2014-10-01T15:05:00,8,28142026,180764
OK,33,35,749,33,2014-10-01T15:10:00,6,28142454,180764
OK,25,46,749,25,2014-10-01T15:15:00,7,28142903,180764
OK,33,35,749,33,2014-10-01T15:20:00,4,28143330,180764
OK,22,52,749,22,2014-10-01T15:25:00,4,28143779,180764
OK,19,60,749,19,2014-10-01T15:30:00,4,28144227,180764
OK,18,64,749,18,2014-10-01T15:35:00,5,28144676,180764
OK,19,60,749,19,2014-10-01T15:45:00,10,28145511,180764
OK,22,52,749,22,2014-10-01T15:50:00,9,28145960,180764
OK,20,57,749,20,2014-10-01T15:55:00,9,28146409,180764
OK,20,57,749,20,2014-10-01T16:00:00,3,28146858,180764
OK,21,55,749,21,2014-10-01T16:05:00,5,28147266,180764
OK,26,44,749,26,2014-10-01T16:10:00,3,28147710,180764
OK,21,55,749,21,2014-10-01T16:20:00,6,28148560,180764
OK,19,60,749,19,2014-10-01T16:25:00,4,28149009,180764
OK,18,64,749,18,2014-10-01T16:30:00,2,28149448,180764
OK,21,55,749,21,2014-10-01T16:35:00,5,28149897,180764
OK,23,50,749,23,2014-10-01T16:40:00,9,28150323,180764
OK,20,57,749,20,2014-10-01T16:45:00,6,28150772,180764
OK,19,60,749,19,2014-10-01T16:50:00,5,28151190,180764
OK,20,57,749,20,2014-10-01T16:55:00,7,28151639,180764
OK,18,64,749,18,2014-10-01T17:05:00,4,28152088,180764
OK,18,64,749,18,2014-10-01T17:10:00,3,28152537,180764
OK,20,57,749,20,2014-10-01T17:15:00,3,28152983,180764
OK,23,50,749,23,2014-10-01T17:20:00,4,28153430,180764
OK,28,41,749,28,2014-10-01T17:25:00,2,28153879,180764
OK,20,57,749,20,2014-10-01T17:30:00,3,28154289,180764
OK,22,52,749,22,2014-10-01T17:35:00,4,28154738,180764
OK,22,52,749,22,2014-10-01T17:40:00,4,28155180,180764
OK,21,55,749,21,2014-10-01T17:45:00,3,28155628,180764
OK,34,33,749,34,2014-10-01T17:50:00,2,28156046,180764
OK,19,60,749,19,2014-10-01T17:55:00,4,28156495,180764
OK,19,60,749,19,2014-10-01T18:00:00,3,28156943,180764
OK,22,52,749,22,2014-10-01T18:05:00,1,28157382,180764
OK,22,52,749,22,2014-10-01T18:10:00,0,28157811,180764
OK,19,60,749,19,2014-10-01T18:15:00,1,28158260,180764
OK,27,42,749,27,2014-10-01T18:20:00,1,28158704,180764
OK,27,42,749,27,2014-10-01T18:25:00,4,28159149,180764
OK,22,52,749,22,2014-10-01T18:35:00,0,28159931,180764
OK,45,25,749,45,2014-10-01T18:40:00,1,28160380,180764
OK,33,35,749,33,2014-10-01T18:45:00,2,28160829,180764
OK,21,55,749,21,2014-10-01T18:50:00,1,28161267,180764
OK,18,64,749,18,2014-10-01T18:55:00,3,28161714,180764
OK,18,64,749,18,2014-10-01T19:00:00,5,28162133,180764
OK,19,60,749,19,2014-10-01T19:05:00,3,28162582,180764
OK,16,72,749,16,2014-10-01T19:10:00,2,28162976,180764
OK,34,33,749,34,2014-10-01T19:15:00,2,28163415,180764
OK,49,23,749,49,2014-10-01T19:20:00,0,28163863,180764
OK,20,57,749,20,2014-10-01T19:25:00,1,28164312,180764
OK,24,48,749,24,2014-10-01T19:30:00,1,28164743,180764
OK,47,24,749,47,2014-10-01T19:35:00,2,28165192,180764
OK,23,50,749,23,2014-10-01T19:40:00,3,28165617,180764
OK,21,55,749,21,2014-10-01T19:45:00,2,28166065,180764
OK,41,28,749,41,2014-10-01T19:55:00,2,28166868,180764
OK,49,23,749,49,2014-10-01T20:00:00,1,28167737,180764
OK,49,23,749,49,2014-10-01T20:05:00,0,28168179,180764
OK,16,72,749,16,2014-10-01T20:10:00,1,28168627,180764
OK,22,52,749,22,2014-10-01T20:20:00,2,28169073,180764
OK,23,50,749,23,2014-10-01T20:25:00,1,28169522,180764
OK,23,50,749,23,2014-10-01T20:30:00,0,28170393,180764
OK,16,72,749,16,2014-10-01T20:40:00,1,28170841,180764
OK,16,72,749,16,2014-10-01T20:45:00,0,28171724,180764
OK,16,72,749,16,2014-10-01T20:50:00,0,28172171,180764
OK,52,22,749,52,2014-10-01T20:55:00,1,28172618,180764
OK,52,22,749,52,2014-10-01T21:00:00,1,28173063,180764
OK,41,28,749,41,2014-10-01T21:05:00,1,28173512,180764
OK,41,28,749,41,2014-10-01T21:10:00,1,28173955,180764
OK,19,60,749,19,2014-10-01T21:15:00,3,28174402,180764
OK,19,60,749,19,2014-10-01T21:20:00,2,28174834,180764
OK,23,50,749,23,2014-10-01T21:25:00,1,28175224,180764
OK,23,50,749,23,2014-10-01T21:30:00,1,28175673,180764
OK,51,22,749,51,2014-10-01T21:35:00,1,28176122,180764
OK,49,23,749,49,2014-10-01T21:45:00,0,28176571,180764
OK,20,57,749,20,2014-10-01T21:50:00,1,28177369,180764
OK,20,57,749,20,2014-10-01T21:55:00,0,28177813,180764
OK,20,57,749,20,2014-10-01T22:05:00,0,28178262,180764
OK,20,57,749,20,2014-10-01T22:10:00,0,28178711,180764
OK,20,57,749,20,2014-10-01T22:15:00,0,28179158,180764
OK,17,67,749,17,2014-10-01T22:20:00,1,28179592,180764
OK,17,67,749,17,2014-10-01T22:25:00,0,28180035,180764
OK,17,67,749,17,2014-10-01T22:30:00,0,28180880,180764
OK,17,67,749,17,2014-10-01T22:35:00,0,28181305,180764
OK,17,67,749,17,2014-10-01T22:40:00,0,28181752,180764
OK,17,67,749,17,2014-10-01T22:45:00,0,28182199,180764
OK,17,67,749,17,2014-10-01T22:50:00,0,28182648,180764
OK,50,23,749,50,2014-10-01T22:55:00,1,28183073,180764
OK,50,23,749,50,2014-10-01T23:00:00,1,28183498,180764
OK,50,23,749,50,2014-10-01T23:05:00,0,28183943,180764
OK,50,23,749,50,2014-10-01T23:10:00,0,28184392,180764
OK,50,23,749,50,2014-10-01T23:15:00,0,28184827,180764
OK,50,23,749,50,2014-10-01T23:20:00,0,28185275,180764
OK,50,23,749,50,2014-10-01T23:25:00,0,28185706,180764
OK,50,23,749,50,2014-10-01T23:30:00,0,28186098,180764
OK,50,23,749,50,2014-10-01T23:35:00,0,28186547,180764
OK,50,23,749,50,2014-10-01T23:40:00,0,28186945,180764
OK,50,23,749,50,2014-10-01T23:45:00,0,28187387,180764
OK,50,23,749,50,2014-10-01T23:50:00,0,28187836,180764
OK,50,23,749,50,2014-10-01T23:55:00,0,28188277,180764
OK,50,23,749,50,2014-10-02T00:00:00,0,28188713,180764
OK,50,23,749,50,2014-10-02T00:10:00,0,28189162,180764
OK,50,23,749,50,2014-10-02T00:15:00,0,28189611,180764
OK,50,23,749,50,2014-10-02T00:20:00,0,28190033,180764
OK,50,23,749,50,2014-10-02T00:30:00,0,28190835,180764
OK,50,23,749,50,2014-10-02T00:35:00,0,28191284,180764
OK,50,23,749,50,2014-10-02T00:45:00,0,28192039,180764
OK,50,23,749,50,2014-10-02T00:50:00,0,28192488,180764
OK,50,23,749,50,2014-10-02T00:55:00,0,28192921,180764
OK,50,23,749,50,2014-10-02T01:05:00,0,28193732,180764
OK,50,23,749,50,2014-10-02T01:10:00,0,28194181,180764
OK,50,23,749,50,2014-10-02T01:15:00,0,28194630,180764
OK,49,23,749,49,2014-10-02T01:25:00,0,28195315,180764
OK,49,23,749,49,2014-10-02T01:30:00,0,28195764,180764
OK,49,23,749,49,2014-10-02T01:35:00,0,28196213,180764
OK,49,23,749,49,2014-10-02T01:40:00,0,28196497,180764
OK,49,23,749,49,2014-10-02T01:50:00,0,28197369,180764
OK,49,23,749,49,2014-10-02T01:55:00,0,28197818,180764
OK,49,23,749,49,2014-10-02T02:00:00,0,28198266,180764
OK,12,96,749,12,2014-10-02T02:05:00,0,28198714,180764
OK,12,96,749,12,2014-10-02T02:10:00,0,28199163,180764
OK,12,96,749,12,2014-10-02T02:15:00,0,28199535,180764
OK,12,96,749,12,2014-10-02T02:20:00,0,28199976,180764
OK,12,96,749,12,2014-10-02T02:30:00,0,28200862,180764
OK,12,96,749,12,2014-10-02T02:45:00,0,28201742,180764
OK,12,96,749,12,2014-10-02T02:50:00,0,28202191,180764
OK,12,96,749,12,2014-10-02T02:55:00,0,28202639,180764
OK,37,31,749,37,2014-10-02T03:00:00,1,28203082,180764
OK,37,31,749,37,2014-10-02T03:10:00,0,28203965,180764
OK,25,46,749,25,2014-10-02T03:25:00,2,28204414,180764
OK,32,36,749,32,2014-10-02T03:35:00,1,28204863,180764
OK,32,36,749,32,2014-10-02T03:40:00,1,28205312,180764
OK,18,64,749,18,2014-10-02T03:45:00,2,28205740,180764
OK,18,64,749,18,2014-10-02T03:55:00,0,28206570,180764
OK,14,82,749,14,2014-10-02T04:00:00,2,28207019,180764
OK,15,77,749,15,2014-10-02T04:05:00,0,28207468,180764
OK,41,28,749,41,2014-10-02T04:10:00,2,28207887,180764
OK,36,32,749,36,2014-10-02T04:15:00,0,28208336,180764
OK,34,33,749,34,2014-10-02T04:20:00,2,28208763,180764
OK,18,64,749,18,2014-10-02T04:25:00,0,28209212,180764
OK,35,33,749,35,2014-10-02T04:30:00,2,28209650,180764
OK,22,52,749,22,2014-10-02T04:35:00,1,28210099,180764
OK,23,50,749,23,2014-10-02T04:40:00,3,28210522,180764
OK,23,50,749,23,2014-10-02T04:45:00,0,28210971,180764
OK,23,50,749,23,2014-10-02T04:50:00,0,28211396,180764
OK,29,39,749,29,2014-10-02T05:00:00,0,28212218,180764
OK,21,55,749,21,2014-10-02T05:05:00,6,28212667,180764
OK,26,44,749,26,2014-10-02T05:10:00,1,28213096,180764
OK,52,22,749,52,2014-10-02T05:15:00,4,28213545,180764
OK,23,50,749,23,2014-10-02T05:20:00,0,28213983,180764
OK,31,37,749,31,2014-10-02T05:25:00,14,28214432,180764
OK,37,31,749,37,2014-10-02T05:30:00,8,28214845,180764
OK,50,23,749,50,2014-10-02T05:35:00,0,28215294,180764
OK,82,14,749,82,2014-10-02T05:40:00,16,28215710,180764
OK,108,10,749,108,2014-10-02T05:45:00,7,28216159,180764
OK,96,12,749,96,2014-10-02T05:50:00,0,28216498,180764
OK,116,9,749,116,2014-10-02T05:55:00,38,28216938,180764
OK,118,9,749,118,2014-10-02T06:00:00,32,28217385,180764
OK,113,10,749,113,2014-10-02T06:05:00,22,28217834,180764
OK,136,8,749,136,2014-10-02T06:10:00,7,28218273,180764
OK,98,11,749,98,2014-10-02T06:15:00,33,28218722,180764
OK,92,12,749,92,2014-10-02T06:20:00,27,28219142,180764
OK,105,11,749,105,2014-10-02T06:30:00,43,28219964,180764
OK,108,10,749,108,2014-10-02T06:35:00,38,28220413,180764
OK,56,20,749,56,2014-10-02T06:40:00,18,28220847,180764
OK,55,21,749,55,2014-10-02T06:45:00,19,28221296,180764
OK,24,48,749,24,2014-10-02T07:05:00,12,28222108,180764
OK,22,52,749,22,2014-10-02T07:10:00,8,28222557,180764
OK,18,64,749,18,2014-10-02T07:15:00,3,28223006,180764
OK,18,64,749,18,2014-10-02T07:20:00,0,28223436,180764
OK,26,44,749,26,2014-10-02T07:25:00,4,28223872,180764
OK,20,57,749,20,2014-10-02T07:35:00,9,28224675,180764
OK,20,57,749,20,2014-10-02T07:40:00,5,28225124,180764
OK,29,39,749,29,2014-10-02T07:50:00,12,28225895,180764
OK,23,50,749,23,2014-10-02T07:55:00,6,28226344,180764
OK,23,50,749,23,2014-10-02T08:00:00,4,28226785,180764
OK,18,64,749,18,2014-10-02T08:05:00,5,28227234,180764
OK,17,67,749,17,2014-10-02T08:10:00,1,28227649,180764
OK,23,50,749,23,2014-10-02T08:20:00,6,28228457,180764
OK,22,52,749,22,2014-10-02T08:25:00,9,28228906,180764
OK,23,50,749,23,2014-10-02T08:30:00,7,28229316,180764
OK,33,35,749,33,2014-10-02T08:40:00,2,28230115,180764
OK,22,52,749,22,2014-10-02T08:50:00,18,28230930,180764
OK,21,55,749,21,2014-10-02T08:55:00,9,28231377,180764
OK,19,60,749,19,2014-10-02T09:00:00,16,28231802,180764
OK,18,64,749,18,2014-10-02T09:15:00,7,28232593,180764
OK,36,32,749,36,2014-10-02T09:20:00,2,28233042,180764
OK,19,60,749,19,2014-10-02T09:25:00,9,28233491,180764
OK,19,60,749,19,2014-10-02T09:30:00,4,28233915,180764
OK,20,57,749,20,2014-10-02T09:40:00,0,28234697,180764
OK,19,60,749,19,2014-10-02T09:45:00,4,28235146,180764
OK,19,60,749,19,2014-10-02T09:50:00,2,28235573,180764
OK,22,52,749,22,2014-10-02T09:55:00,11,28236022,180764
OK,22,52,749,22,2014-10-02T10:00:00,3,28236465,180764
OK,22,52,749,22,2014-10-02T10:10:00,5,28237314,180764
OK,22,52,749,22,2014-10-02T10:15:00,9,28237762,180764
OK,21,55,749,21,2014-10-02T10:20:00,12,28238211,180764
OK,28,41,749,28,2014-10-02T10:25:00,5,28238658,180764
OK,28,41,749,28,2014-10-02T10:30:00,1,28239099,180764
OK,22,52,749,22,2014-10-02T10:35:00,6,28239548,180764
OK,23,50,749,23,2014-10-02T10:40:00,3,28239978,180764
OK,22,52,749,22,2014-10-02T10:45:00,3,28240427,180764
OK,21,55,749,21,2014-10-02T10:50:00,2,28240871,180764
OK,23,50,749,23,2014-10-02T10:55:00,9,28241320,180764
OK,19,60,749,19,2014-10-02T11:00:00,1,28241752,180764
OK,19,60,749,19,2014-10-02T11:10:00,8,28242596,180764
OK,20,57,749,20,2014-10-02T11:15:00,6,28243045,180764
OK,18,64,749,18,2014-10-02T11:20:00,3,28243494,180764
OK,17,67,749,17,2014-10-02T11:25:00,0,28243819,180764
OK,17,67,749,17,2014-10-02T11:30:00,0,28244256,180764
OK,22,52,749,22,2014-10-02T11:35:00,11,28244686,180764
OK,17,67,749,17,2014-10-02T11:40:00,6,28245135,180764
OK,19,60,749,19,2014-10-02T11:50:00,16,28245990,180764
OK,20,57,749,20,2014-10-02T11:55:00,11,28246439,180764
OK,18,64,749,18,2014-10-02T12:00:00,3,28246876,180764
OK,18,64,749,18,2014-10-02T12:05:00,1,28247324,180764
OK,18,64,749,18,2014-10-02T12:10:00,0,28247770,180764
OK,23,50,749,23,2014-10-02T12:15:00,5,28248201,180764
OK,19,60,749,19,2014-10-02T12:20:00,3,28248650,180764
OK,28,41,749,28,2014-10-02T12:25:00,9,28249097,180764
OK,34,33,749,34,2014-10-02T12:30:00,6,28249525,180764
OK,22,52,749,22,2014-10-02T12:35:00,6,28250339,180764
OK,30,38,749,30,2014-10-02T12:45:00,7,28251117,180764
OK,68,16,749,68,2014-10-02T13:20:00,9,28251662,180764
OK,44,26,749,44,2014-10-02T13:30:00,9,28252246,180764
OK,58,19,749,58,2014-10-02T13:35:00,2,28252692,180764
OK,58,19,749,58,2014-10-02T13:40:00,0,28253107,180764
OK,22,52,749,22,2014-10-02T13:50:00,9,28253554,180764
OK,39,29,749,39,2014-10-02T13:55:00,18,28254280,180764
OK,22,52,749,22,2014-10-02T14:10:00,7,28254857,180764
OK,40,28,749,40,2014-10-02T14:20:00,5,28255306,180764
OK,41,28,749,41,2014-10-02T14:30:00,5,28256183,180764
OK,30,38,749,30,2014-10-02T14:35:00,3,28257060,180764
OK,42,27,749,42,2014-10-02T14:40:00,3,28257506,180764
OK,27,42,749,27,2014-10-02T14:50:00,9,28257949,180764
OK,27,42,749,27,2014-10-02T14:55:00,13,28258829,180764
OK,25,46,749,25,2014-10-02T15:00:00,10,28259277,180764
OK,30,38,749,30,2014-10-02T15:05:00,4,28259725,180764
OK,62,18,749,62,2014-10-02T15:10:00,1,28260163,180764
OK,31,37,749,31,2014-10-02T15:15:00,6,28260606,180764
OK,31,37,749,31,2014-10-02T15:20:00,4,28261048,180764
OK,19,60,749,19,2014-10-02T15:25:00,4,28261429,180764
OK,19,60,749,19,2014-10-02T15:30:00,3,28261858,180764
OK,26,44,749,26,2014-10-02T15:35:00,4,28262307,180764
OK,30,38,749,30,2014-10-02T15:40:00,3,28262752,180764
OK,22,52,749,22,2014-10-02T15:45:00,7,28263193,180764
OK,22,52,749,22,2014-10-02T15:50:00,6,28263630,180764
OK,22,52,749,22,2014-10-02T15:55:00,0,28264032,180764
OK,29,39,749,29,2014-10-02T16:05:00,3,28264481,180764
OK,21,55,749,21,2014-10-02T16:10:00,5,28265362,180764
OK,20,57,749,20,2014-10-02T16:15:00,3,28265755,180764
OK,19,60,749,19,2014-10-02T16:20:00,2,28266204,180764
OK,21,55,749,21,2014-10-02T16:30:00,9,28266653,180764
OK,20,57,749,20,2014-10-02T16:35:00,4,28267425,180764
OK,20,57,749,20,2014-10-02T16:40:00,0,28267874,180764
OK,20,57,749,20,2014-10-02T16:45:00,6,28268319,180764
OK,18,64,749,18,2014-10-02T16:50:00,0,28268765,180764
OK,21,55,749,21,2014-10-02T17:00:00,9,28269214,180764
OK,21,55,749,21,2014-10-02T17:05:00,5,28270098,180764
OK,21,55,749,21,2014-10-02T17:10:00,1,28270537,180764
OK,21,55,749,21,2014-10-02T17:20:00,4,28270981,180764
OK,16,72,749,16,2014-10-02T17:30:00,1,28271859,180764
OK,16,72,749,16,2014-10-02T17:35:00,0,28272739,180764
OK,20,57,749,20,2014-10-02T17:45:00,4,28273185,180764
OK,18,64,749,18,2014-10-02T17:50:00,2,28273633,180764
OK,79,14,749,79,2014-10-02T17:55:00,2,28274079,180764
OK,38,30,749,38,2014-10-02T18:00:00,1,28274855,180764
OK,45,25,749,45,2014-10-02T18:05:00,1,28275297,180764
OK,45,25,749,45,2014-10-02T18:10:00,0,28275737,180764
OK,45,25,749,45,2014-10-02T18:15:00,0,28276184,180764
OK,21,55,749,21,2014-10-02T18:20:00,1,28276579,180764
OK,21,55,749,21,2014-10-02T18:30:00,0,28277028,180764
OK,23,50,749,23,2014-10-02T18:40:00,1,28277477,180764
OK,24,48,749,24,2014-10-02T18:45:00,1,28278280,180764
OK,20,57,749,20,2014-10-02T19:00:00,0,28278723,180764
OK,17,67,749,17,2014-10-02T19:05:00,0,28279172,180764
OK,17,67,749,17,2014-10-02T19:10:00,0,28279617,180764
OK,18,64,749,18,2014-10-02T19:15:00,0,28280061,180764
OK,18,64,749,18,2014-10-02T19:20:00,0,28280506,180764
OK,18,64,749,18,2014-10-02T19:25:00,0,28280910,180764
OK,18,64,749,18,2014-10-02T19:35:00,0,28281807,180764
OK,30,38,749,30,2014-10-02T19:40:00,2,28282241,180764
OK,16,72,749,16,2014-10-02T19:45:00,0,28282687,180764
OK,16,72,749,16,2014-10-02T19:50:00,0,28283135,180764
OK,20,57,749,20,2014-10-02T19:55:00,4,28283572,180764
OK,21,55,749,21,2014-10-02T20:00:00,1,28283934,180764
OK,16,72,749,16,2014-10-02T20:10:00,0,28284383,180764
OK,36,32,749,36,2014-10-02T20:15:00,4,28285166,180764
OK,38,30,749,38,2014-10-02T20:20:00,1,28285602,180764
OK,38,30,749,38,2014-10-02T20:25:00,0,28286017,180764
OK,16,72,749,16,2014-10-02T20:35:00,0,28286869,180764
OK,61,18,749,61,2014-10-02T20:40:00,2,28287303,180764